GW3945 Weather Reports


Display with metric or nautical units.
time (UTC)temp
F
wind
direction
speed
MPH
gust
MPH
rain 1hr
in
rain 24hr
in
rain mn
in
humidity
%
barometer
mb
20260504195636 78 194 0.0 0.0 0.00 0.00 0.00 43 1009.2
20260504195132 78 199 1.0 2.0 0.00 0.00 0.00 44 1009.3
20260504194629 77 147 2.0 5.0 0.00 0.00 0.00 43 1009.3
20260504194125 78 190 2.0 2.0 0.00 0.00 0.00 42 1009.3
20260504193621 78 192 0.0 0.0 0.00 0.00 0.00 42 1009.5
20260504193120 77 175 0.0 0.0 0.00 0.00 0.00 47 1009.2
20260504192617 77 158 0.0 0.0 0.00 0.00 0.00 46 1009.4
20260504192115 77 184 0.0 0.0 0.00 0.00 0.00 47 1009.4
20260504191614 77 175 1.0 2.0 0.00 0.00 0.00 43 1009.8
20260504191109 78 278 2.0 2.0 0.00 0.00 0.00 44 1009.9
20260504190606 78 159 0.0 0.0 0.00 0.00 0.00 44 1009.8
20260504185559 78 222 3.0 3.0 0.00 0.00 0.00 44 1009.9
20260504185055 78 96 1.0 1.0 0.00 0.00 0.00 44 1010.0
20260504184551 77 155 2.0 2.0 0.00 0.00 0.00 49 1010.1
20260504184046 77 236 2.0 3.0 0.00 0.00 0.00 47 1010.2
20260504183544 77 146 0.0 0.0 0.00 0.00 0.00 46 1010.0
20260504183042 77 179 1.0 1.0 0.00 0.00 0.00 46 1010.2
20260504182538 77 190 1.0 1.0 0.00 0.00 0.00 47 1010.3
20260504182036 77 261 5.0 7.0 0.00 0.00 0.00 45 1010.1
20260504181533 77 199 0.0 1.0 0.00 0.00 0.00 46 1010.3
20260504181031 77 176 0.0 0.0 0.00 0.00 0.00 47 1010.2
20260504180530 78 170 1.0 1.0 0.00 0.00 0.00 46 1010.5
20260504180028 77 170 2.0 2.0 0.00 0.00 0.00 47 1010.4
20260504175525 77 171 0.0 0.0 0.00 0.00 0.00 48 1010.5
20260504175022 77 221 0.0 0.0 0.00 0.00 0.00 47 1010.5
20260504174520 76 168 0.0 0.0 0.00 0.00 0.00 50 1010.4
20260504174016 76 209 1.0 1.0 0.00 0.00 0.00 48 1010.4
20260504173513 75 173 0.0 0.0 0.00 0.00 0.00 49 1010.4
20260504173011 76 207 1.0 3.0 0.00 0.00 0.00 47 1010.4
20260504172507 75 165 0.0 0.0 0.00 0.00 0.00 49 1010.7
20260504172003 75 195 4.0 6.0 0.00 0.00 0.00 50 1010.6
20260504171500 74 182 3.0 3.0 0.00 0.00 0.00 50 1010.7
20260504170957 75 195 1.0 1.0 0.00 0.00 0.00 50 1010.7
20260504170453 75 172 0.0 0.0 0.00 0.00 0.00 51 1011.0
20260504160413 73 175 0.0 0.0 0.00 0.00 0.00 54 1011.8
20260504150837 68 214 0.0 1.0 0.00 0.00 0.00 60 1012.2
20260504150334 68 176 0.0 0.0 0.00 0.00 0.00 62 1012.0
20260504141304 63 178 0.0 0.0 0.00 0.00 0.00 69 1012.2
20260504140800 62 157 0.0 0.0 0.00 0.00 0.00 70 1012.2
20260504140256 61 168 0.0 0.0 0.00 0.00 0.00 68 1012.4
20260504130725 55 171 0.0 0.0 0.00 0.00 0.00 77 1012.8
20260504130220 55 167 0.0 0.0 0.00 0.00 0.00 77 1012.7
20260504120145 51 159 0.0 0.0 0.00 0.00 0.00 81 1012.5
20260504110612 51 163 0.0 0.0 0.00 0.00 0.00 79 1012.1
20260504110108 51 165 0.0 0.0 0.00 0.00 0.00 78 1012.0
20260504100534 51 170 0.0 0.0 0.00 0.00 0.00 75 1011.8
20260504081927 53 171 0.0 0.0 0.00 0.00 0.00 69 1012.0
20260504081424 53 169 0.0 0.0 0.00 0.00 0.00 69 1012.1
20260504080920 53 172 0.0 0.0 0.00 0.00 0.00 69 1012.0
20260504080417 53 171 0.0 0.0 0.00 0.00 0.00 68 1012.2
20260504070344 51 173 0.0 0.0 0.00 0.00 0.00 70 1012.6
20260504050732 55 177 0.0 0.0 0.00 0.00 0.00 59 1013.5
20260504050229 55 174 0.0 0.0 0.00 0.00 0.00 60 1013.5
20260504045726 54 175 0.0 0.0 0.00 0.00 0.00 62 1013.6
20260504045221 55 172 0.0 0.0 0.00 0.00 0.00 60 1013.5
20260504044719 55 174 0.0 0.0 0.00 0.00 0.00 59 1013.7
20260504044216 55 176 0.0 0.0 0.00 0.00 0.00 58 1013.8
20260504043714 55 178 0.0 0.0 0.00 0.00 0.00 59 1013.6
20260504043210 55 178 0.0 0.0 0.00 0.00 0.00 60 1013.6
20260504042708 56 178 0.0 0.0 0.00 0.00 0.00 57 1013.8
20260504042204 56 178 0.0 0.0 0.00 0.00 0.00 56 1013.7
20260504041700 57 175 0.0 0.0 0.00 0.00 0.00 56 1013.5
20260504041156 57 168 0.0 0.0 0.00 0.00 0.00 55 1013.4
20260504040653 57 169 0.0 0.0 0.00 0.00 0.00 54 1013.7
20260504040150 57 171 0.0 0.0 0.00 0.00 0.00 54 1013.5
20260504035647 57 122 0.0 0.0 0.00 0.00 0.00 53 1013.4
20260504035144 58 164 0.0 0.0 0.00 0.00 0.00 53 1013.3
20260504034641 57 160 0.0 0.0 0.00 0.00 0.00 54 1013.0
20260504034138 57 168 0.0 0.0 0.00 0.00 0.00 54 1013.0
20260504033636 57 165 0.0 0.0 0.00 0.00 0.00 54 1013.2
20260504033133 58 171 0.0 0.0 0.00 0.00 0.00 53 1013.4
20260504032629 58 171 0.0 0.0 0.00 0.00 0.00 52 1013.4
20260504032127 57 163 0.0 0.0 0.00 0.00 0.00 54 1013.2
20260504031624 57 174 0.0 0.0 0.00 0.00 0.00 54 1013.3
20260504031120 57 174 1.0 2.0 0.00 0.00 0.00 54 1013.3
20260504030617 57 174 0.0 0.0 0.00 0.00 0.00 53 1013.7
20260504030114 57 171 0.0 0.0 0.00 0.00 0.00 54 1013.7
20260504025610 57 170 0.0 0.0 0.00 0.00 0.00 54 1013.6
20260504025107 57 171 0.0 0.0 0.00 0.00 0.00 54 1014.0
20260504024604 57 177 0.0 0.0 0.00 0.00 0.00 55 1014.0
20260504024101 57 169 0.0 0.0 0.00 0.00 0.00 54 1013.8
20260504023557 56 172 0.0 0.0 0.00 0.00 0.00 58 1013.8
20260504023054 56 174 0.0 0.0 0.00 0.00 0.00 62 1013.9
20260504022550 57 177 0.0 0.0 0.00 0.00 0.00 60 1013.9
20260504022046 57 177 0.0 0.0 0.00 0.00 0.00 56 1014.0
20260504021544 57 177 0.0 0.0 0.00 0.00 0.00 62 1013.8
20260504021040 58 177 0.0 0.0 0.00 0.00 0.00 58 1013.9
20260504020537 58 177 0.0 0.0 0.00 0.00 0.00 59 1013.9
20260504020034 58 177 0.0 0.0 0.00 0.00 0.00 60 1013.7
20260504015530 59 177 0.0 0.0 0.00 0.00 0.00 53 1013.5
20260504015026 59 178 0.0 0.0 0.00 0.00 0.00 50 1013.7
20260504014523 59 176 0.0 0.0 0.00 0.00 0.00 50 1013.6
20260504014020 59 176 0.0 0.0 0.00 0.00 0.00 50 1013.6
20260504013518 60 177 0.0 0.0 0.00 0.00 0.00 48 1013.6
20260504013014 60 197 0.0 0.0 0.00 0.00 0.00 48 1013.7
20260504012512 60 173 0.0 0.0 0.00 0.00 0.00 48 1013.4
20260504012010 60 195 0.0 0.0 0.00 0.00 0.00 47 1013.5
20260504011506 60 174 0.0 0.0 0.00 0.00 0.00 49 1013.2
20260504011002 60 171 0.0 0.0 0.00 0.00 0.00 50 1013.2
20260504010458 60 171 0.0 0.0 0.00 0.00 0.00 49 1013.3
20260504005954 60 188 0.0 0.0 0.00 0.00 0.00 47 1013.3
20260504005451 60 175 0.0 0.0 0.00 0.00 0.00 48 1013.0
20260504004948 61 173 0.0 0.0 0.00 0.00 0.00 48 1013.2
20260504004446 61 173 0.0 0.0 0.00 0.00 0.00 47 1013.3
20260504003943 61 172 0.0 0.0 0.00 0.00 0.00 48 1013.2
20260504003439 61 172 0.0 0.0 0.00 0.00 0.00 48 1013.0
20260504002936 61 172 0.0 0.0 0.00 0.00 0.00 47 1013.3
20260504002433 62 170 0.0 0.0 0.00 0.00 0.00 46 1013.3
20260504001930 62 173 0.0 0.0 0.00 0.00 0.00 46 1013.5
20260504001427 62 170 0.0 0.0 0.00 0.00 0.00 45 1013.5
20260504000924 62 172 0.0 0.0 0.00 0.00 0.00 46 1013.4
20260504000423 62 174 0.0 0.0 0.00 0.00 0.00 44 1013.7
20260503235918 63 172 0.0 0.0 0.00 0.00 0.00 44 1013.5
20260503235416 63 173 0.0 0.0 0.00 0.00 0.00 44 1013.5
20260503234914 63 172 0.0 0.0 0.00 0.00 0.00 43 1013.7
20260503234411 63 176 0.0 0.0 0.00 0.00 0.00 43 1013.6
20260503233909 63 174 0.0 0.0 0.00 0.00 0.00 42 1013.8
20260503233405 63 172 0.0 0.0 0.00 0.00 0.00 43 1013.7
20260503232901 64 166 0.0 0.0 0.00 0.00 0.00 43 1013.5
20260503232359 63 159 0.0 0.0 0.00 0.00 0.00 44 1013.9
20260503231856 64 172 0.0 0.0 0.00 0.00 0.00 43 1013.9
20260503231353 64 176 0.0 0.0 0.00 0.00 0.00 43 1014.1
20260503230849 64 167 0.0 0.0 0.00 0.00 0.00 42 1014.2
20260503230346 64 177 0.0 0.0 0.00 0.00 0.00 45 1014.2
20260503225844 65 151 0.0 0.0 0.00 0.00 0.00 41 1014.3
20260503225340 66 170 0.0 0.0 0.00 0.00 0.00 41 1014.4
20260503224836 65 225 1.0 2.0 0.00 0.00 0.00 39 1014.4
20260503224333 66 168 0.0 0.0 0.00 0.00 0.00 39 1014.3
20260503223831 66 207 0.0 0.0 0.00 0.00 0.00 38 1014.3
20260503223329 66 214 0.0 1.0 0.00 0.00 0.00 37 1014.5
20260503222824 65 171 0.0 0.0 0.00 0.00 0.00 40 1014.5
20260503222323 65 157 3.0 3.0 0.00 0.00 0.00 38 1014.6
20260503221820 65 159 0.0 0.0 0.00 0.00 0.00 41 1014.6
20260503221319 66 177 0.0 0.0 0.00 0.00 0.00 40 1014.6
20260503220815 66 174 0.0 0.0 0.00 0.00 0.00 40 1014.8
20260503220312 66 164 0.0 0.0 0.00 0.00 0.00 40 1014.5
20260503215808 65 164 0.0 0.0 0.00 0.00 0.00 40 1014.7
20260503215306 67 197 0.0 0.0 0.00 0.00 0.00 40 1014.8
20260503214804 67 180 0.0 0.0 0.00 0.00 0.00 36 1015.0
20260503214300 67 212 1.0 2.0 0.00 0.00 0.00 36 1014.9
20260503213758 68 180 0.0 0.0 0.00 0.00 0.00 34 1015.0
20260503213255 67 180 0.0 0.0 0.00 0.00 0.00 38 1015.1
20260503212752 67 131 0.0 0.0 0.00 0.00 0.00 37 1015.3
20260503212250 66 186 0.0 0.0 0.00 0.00 0.00 42 1015.5
20260503211747 66 178 0.0 0.0 0.00 0.00 0.00 40 1015.3
20260503211243 67 152 0.0 0.0 0.00 0.00 0.00 39 1015.7
20260503210738 66 212 0.0 0.0 0.00 0.00 0.00 40 1015.5
20260503210236 66 166 0.0 0.0 0.00 0.00 0.00 39 1015.6
20260503205731 66 216 0.0 0.0 0.00 0.00 0.00 39 1015.7
20260503205228 66 160 0.0 0.0 0.00 0.00 0.00 38 1015.8
20260503204724 67 184 0.0 0.0 0.00 0.00 0.00 38 1016.1
20260503204222 66 178 0.0 0.0 0.00 0.00 0.00 36 1016.1
20260503203719 67 174 0.0 0.0 0.00 0.00 0.00 40 1016.2
20260503203217 67 221 1.0 2.0 0.00 0.00 0.00 36 1016.1
20260503202714 67 218 2.0 5.0 0.00 0.00 0.00 35 1016.2
20260503202212 66 254 1.0 2.0 0.00 0.00 0.00 36 1016.2
20260503201709 66 207 0.0 0.0 0.00 0.00 0.00 42 1016.4
20260503201207 65 182 0.0 0.0 0.00 0.00 0.00 40 1016.5
20260503200703 64 174 0.0 1.0 0.00 0.00 0.00 39 1016.6
20260503200159 64 169 1.0 1.0 0.00 0.00 0.00 38 1016.6